EW7994 6mi Mitkof highway Petersburg CWOPAK US current weather conditions

sailwx.info

Wind from 315

Air temperature 5.0° C
Dewpoint -4.3° C

Last reported at 2019-Oct-15 04:58 UTC.
Time now 2019-Oct-15 06:03 UTC

Location: N 56°42' W 132°56'.
View on Google Maps.

See reports from other nearby stations

  
Tides and Currents Weather Stations Pressure Air Temp Water Temp Dewpoint Dewpoint Depression Visibility Wind Speed Wind Dir Waves Ship Positions
date/time (UTC)wind fromknots sea level pressurealtimeterstation pressurevisibilityair tempwater tempwave heightnotes
2019-Oct-15 04:58 315 5.0
2019-Oct-15 04:48 180 5.0
2019-Oct-15 04:39 328 5.0
2019-Oct-15 04:29 187 0 5.0
2019-Oct-15 04:20 041 4.4
2019-Oct-15 04:11 050 4.4
2019-Oct-15 04:01 276 4.4
2019-Oct-15 03:51 095 0 4.4
2019-Oct-15 03:42 322 4.4
2019-Oct-15 03:33 090 4.4
2019-Oct-15 03:23 180 4.4
2019-Oct-15 03:13 360 4.4
2019-Oct-15 03:03 270 1 4.4
2019-Oct-15 02:53 315 4.4
2019-Oct-15 02:43 226 1 4.4
2019-Oct-15 02:34 119 1 4.4
2019-Oct-15 02:24 022 0 3.9
2019-Oct-15 02:15 313 0 3.9
2019-Oct-15 02:05 309 1 3.9
2019-Oct-15 01:56 244 3.9
2019-Oct-15 01:46 315 1 3.9
2019-Oct-15 01:36 324 0 3.9
2019-Oct-15 01:27 138 0 3.9
2019-Oct-15 01:17 300 0 3.9
2019-Oct-15 01:07 219 2 3.9
2019-Oct-15 00:58 337 3.9
2019-Oct-15 00:48 303 3.9
2019-Oct-15 00:38 045 0 3.9
2019-Oct-15 00:29 315 3.9
2019-Oct-15 00:19 307 3.9
2019-Oct-15 00:10 159 3.9
2019-Oct-15 00:00 337 3.9
2019-Oct-14 23:50 315 3.9
2019-Oct-14 23:40 333 3.9
2019-Oct-14 23:31 315 3.9
2019-Oct-14 23:21 270 4.4
2019-Oct-14 23:12 270 4.4
2019-Oct-14 23:02 315 4.4
2019-Oct-14 22:53 174 2 4.4
2019-Oct-14 22:43 032 5.0
2019-Oct-14 22:34 315 5.0
2019-Oct-14 22:25 271 5.6
2019-Oct-14 22:15 150 3 5.0
2019-Oct-14 22:06 098 1 5.0
2019-Oct-14 21:57 120 1 5.6
2019-Oct-14 21:48 155 1 5.6
2019-Oct-14 21:38 163 5 5.6
2019-Oct-14 21:29 152 0 5.6
2019-Oct-14 21:19 128 2 5.6
2019-Oct-14 21:09 130 1 5.6
2019-Oct-14 21:00 117 0 5.6
2019-Oct-14 20:51 135 4.4
2019-Oct-14 19:52 135 4.4
2019-Oct-14 19:43 135 3.9
2019-Oct-14 19:34 090 0 3.9
2019-Oct-14 19:25 040 3.9
2019-Oct-14 19:15 135 3.9
2019-Oct-14 19:05 157 3.9
2019-Oct-14 18:55 315 3.9
2019-Oct-14 18:45 315 3.9
2019-Oct-14 18:35 315 3.9
2019-Oct-14 18:26 090 3.9
2019-Oct-14 18:16 090 3.3
2019-Oct-14 18:06 090 3.3
2019-Oct-14 17:56 090 2.8
2019-Oct-14 17:47 090 2.8
2019-Oct-14 17:37 090 2.8
2019-Oct-14 17:28 090 2.8
2019-Oct-14 17:19 090 2.2
2019-Oct-14 17:10 112 2.2
2019-Oct-14 17:00 112 2.2
2019-Oct-14 16:51 112 2.2
2019-Oct-14 16:41 112 1.7
2019-Oct-14 16:32 112 1.7
2019-Oct-14 16:23 022 1.7
2019-Oct-14 16:13 090 1.7
2019-Oct-14 16:03 090 1.7
2019-Oct-14 15:54 090 0 1.7
2019-Oct-14 15:45 315 1.7
2019-Oct-14 15:35 157 1.7
2019-Oct-14 15:25 315 1.1
2019-Oct-14 15:15 315 1.1
2019-Oct-14 15:06 315 0.6
2019-Oct-14 14:57 045 0.6
2019-Oct-14 14:47 315 0.6
2019-Oct-14 14:38 090 0.6
2019-Oct-14 14:29 337 0.6
2019-Oct-14 14:20 315 1.1
2019-Oct-14 14:11 225 1.1
2019-Oct-14 13:46 270 1.7
2019-Oct-14 13:37 270 1.7
2019-Oct-14 13:28 270 1.1
2019-Oct-14 13:19 270 1.1
2019-Oct-14 06:39 270 0.6
2019-Oct-14 06:30 270 0.6
2019-Oct-14 06:20 270 1.1
2019-Oct-14 06:10 270 1.7
2019-Oct-14 06:00 270 1.7
2019-Oct-14 05:50 270 1.7
2019-Oct-14 05:41 270 1.7
2019-Oct-14 05:31 270 1.1
2019-Oct-14 05:21 270 1.1
2019-Oct-14 05:12 270 1.1
2019-Oct-14 05:02 270 0.6
2019-Oct-14 04:52 270 0.6
2019-Oct-14 04:42 270 0.6
2019-Oct-14 04:32 270 0.6
2019-Oct-14 04:23 270 0.6
2019-Oct-14 04:13 270 1.1
2019-Oct-14 04:03 270 1.1
2019-Oct-14 03:54 270 1.1
2019-Oct-14 03:45 270 1.1
2019-Oct-14 03:35 270 1.1
2019-Oct-14 03:25 270 1.7
2019-Oct-14 03:16 270 1.7
2019-Oct-14 03:06 270 2.2
2019-Oct-14 02:56 270 2.2
2019-Oct-14 02:47 270 2.2
2019-Oct-14 02:37 270 2.8
2019-Oct-14 02:27 270 2.8
2019-Oct-14 02:17 270 3.3
2019-Oct-14 02:07 270 3.3
2019-Oct-14 01:57 270 3.9
2019-Oct-14 01:48 270 3.9
2019-Oct-14 01:39 270 4.4
2019-Oct-14 01:29 270 4.4
2019-Oct-14 01:19 270 5.0
2019-Oct-14 01:09 270 5.0
2019-Oct-14 00:59 270 5.6
2019-Oct-14 00:50 270 5.6
2019-Oct-14 00:40 315 6.1
2019-Oct-14 00:31 315 6.7
2019-Oct-14 00:22 315 7.2
2019-Oct-14 00:12 339 7.8
2019-Oct-14 00:03 225 8.3
2019-Oct-13 23:53 304 8.9
2019-Oct-13 23:44 315 8.9
2019-Oct-13 23:35 315 8.3
2019-Oct-13 23:26 247 7.8
2019-Oct-13 23:17 293 7.8
2019-Oct-13 23:07 225 8.3
2019-Oct-13 22:57 315 8.3
2019-Oct-13 22:47 234 0 8.3
2019-Oct-13 22:37 287 0 7.8
2019-Oct-13 22:27 336 7.2
2019-Oct-13 22:17 311 0 7.2
2019-Oct-13 22:07 247 0 7.8
2019-Oct-13 21:57 288 7.8
2019-Oct-13 21:47 315 6.7
2019-Oct-13 21:37 292 6.1
2019-Oct-13 21:27 338 6.1
2019-Oct-13 21:18 270 5.6
2019-Oct-13 21:08 270 5.6
2019-Oct-13 20:58 360 5.6
2019-Oct-13 20:49 225 5.6
2019-Oct-13 20:40 157 5.6
2019-Oct-13 20:31 157 5.6
2019-Oct-13 20:21 270 5.6
2019-Oct-13 20:12 337 5.6
2019-Oct-13 20:03 022 5.6
2019-Oct-13 19:53 114 0 5.0
2019-Oct-13 19:43 090 5.0
2019-Oct-13 19:34 262 4.4
2019-Oct-13 19:24 337 4.4
2019-Oct-13 19:14 315 4.4
2019-Oct-13 19:05 315 4.4
2019-Oct-13 18:55 315 4.4
2019-Oct-13 18:46 315 4.4
2019-Oct-13 18:36 315 4.4
2019-Oct-13 18:27 292 4.4
2019-Oct-13 18:17 292 4.4
2019-Oct-13 18:07 292 3.9
2019-Oct-13 17:57 304 0 3.9
2019-Oct-13 17:48 315 3.9
2019-Oct-13 17:38 315 3.9
2019-Oct-13 17:28 315 3.9
2019-Oct-13 17:18 315 3.3
2019-Oct-13 17:08 315 3.3
2019-Oct-13 16:59 315 3.3
2019-Oct-13 16:50 315 2.8
2019-Oct-13 16:41 315 2.8
2019-Oct-13 16:31 315 2.2
2019-Oct-13 16:21 315 2.2
2019-Oct-13 16:12 315 1.7
2019-Oct-13 16:02 315 1.7
2019-Oct-13 15:52 315 1.7
2019-Oct-13 15:42 315 1.7
2019-Oct-13 15:32 315 2.2
2019-Oct-13 15:23 315 2.2
2019-Oct-13 15:13 315 2.2
2019-Oct-13 15:03 315 2.2
2019-Oct-13 14:54 315 2.2
2019-Oct-13 14:44 315 2.2
2019-Oct-13 14:34 315 1.7
2019-Oct-13 14:24 315 2.2
2019-Oct-13 14:14 315 2.2
2019-Oct-13 14:04 315 2.2
2019-Oct-13 13:55 315 2.2
2019-Oct-13 13:45 315 2.2
2019-Oct-13 13:36 315 2.2
2019-Oct-13 13:26 315 2.2
2019-Oct-13 13:17 315 2.2
2019-Oct-13 13:07 315 2.2
2019-Oct-13 12:57 315 2.2
2019-Oct-13 12:47 315 2.2
2019-Oct-13 12:37 315 1.7
2019-Oct-13 12:27 315 1.7
2019-Oct-13 12:18 315 1.7
2019-Oct-13 12:08 315 1.7
2019-Oct-13 11:59 315 1.7
2019-Oct-13 11:49 315 1.1
2019-Oct-13 11:39 315 1.1
2019-Oct-13 11:29 315 1.1
2019-Oct-13 11:19 315 1.7
2019-Oct-13 11:09 315 1.7
2019-Oct-13 10:59 292 1.1
2019-Oct-13 10:49 292 1.1
2019-Oct-13 10:40 292 1.1
2019-Oct-13 10:30 292 1.1
2019-Oct-13 10:20 292 0.6
2019-Oct-13 10:11 292 0.6
2019-Oct-13 10:01 292 0.6
2019-Oct-13 09:51 292 0.6
2019-Oct-13 09:42 292 0.6
2019-Oct-13 09:33 292 0.6
2019-Oct-13 09:24 292 0.6
2019-Oct-13 09:14 292 1.1
2019-Oct-13 09:05 292 1.1
2019-Oct-13 08:55 292 1.1
2019-Oct-13 08:45 292 1.1
2019-Oct-13 08:35 292 1.1
2019-Oct-13 08:26 292 1.1
2019-Oct-13 08:16 292 1.1
2019-Oct-13 08:06 292 1.1
2019-Oct-13 07:56 292 1.7
2019-Oct-13 07:47 292 1.7
2019-Oct-13 07:37 292 2.2
2019-Oct-13 07:28 292 2.2
2019-Oct-13 07:18 292 2.2
2019-Oct-13 07:08 292 2.8
2019-Oct-13 06:58 292 2.8
2019-Oct-13 06:48 292 3.3
2019-Oct-13 06:39 292 3.3
2019-Oct-13 06:29 292 3.3
2019-Oct-13 06:19 292 3.9
2019-Oct-13 06:10 292 3.9
2019-Oct-13 06:00 292 3.9